Location: Mascot Post Office (historical)
(40.2645°N, 99.5462°W)
Time: 02:38:19
(UTC+00:00)

Cosmos 2151 - Pass Details

Date: 14 July 2020
Orbit: 580 x 602 km, 82.5° (Epoch: 14 August)

Event Time Altitude Azimuth Distance (km) Brightness Sun altitude
Exits shadow 05:20:16 30° 258° (WSW) 1,087 4.3 -25.1°
Maximum altitude 05:21:10 33° 283° (WNW) 1,017 4.4 -25.2°
Drops below altitude 10° 05:25:01 10° 348° (NNW) 1,930 6.6 -25.4°
Sets 05:27:25 0° 358° (N) 2,832 7.6 -25.6°
